Location: Serpentine
(32.3617°S, 115.9768°E)
Time: 10:52:40
(UTC+08:00)

X-37B - Pass Details

Date: 09 December 2021
Orbit: 334 x 337 km, 45.0° (Epoch: 11 January)

Event Time Altitude Azimuth Distance (km) Brightness Sun altitude
Exits shadow 03:45:16 13° 14° (NNE) 1,105 2.6 -14.3°
Maximum altitude 03:46:28 17° 43° (NE) 977 2.6 -14.1°
Drops below altitude 10° 03:48:25 10° 86° (E) 1,288 3.9 -13.8°
Sets 03:50:53 0° 108° (ESE) 2,135 5.8 -13.4°
